Home   Weather   Santa Cruz   Past weeks

Flag for USA Past Weather in Santa Cruz, California, USA — Yesterday and Last 2 Weeks

Now
49 °F

Fog.


Feels Like: 49 °F
Forecast: 53 / 70 °F
Wind: No wind

Location: Watsonville Municipal Airport

Current Time: Oct 21, 2018 at 10:25:02 am

Latest Report: Oct 21, 2018 at 8:53 am


Visibility: 0 mi

Pressure: 29.98 "Hg

Humidity: 100%

Dew Point: 49 °F

Location of Santa CruzLocation

Past Weather in Santa Cruz — Graph

°F

Santa Cruz Temperature Yesterday

Maximum temperature yesterday: 78 °F (at 1:53 pm)
Minimum temperature yesterday: 47 °F (at 6:53 am)
Average temperature yesterday: 59 °F

High & Low Weather Summary for the Past Weeks

 TemperatureHumidityPressure
High82 °F (Oct 7, 1:53 pm)100% (Oct 10, 2:03 am)30.16 "Hg (Oct 10, 2:03 am)
Low41 °F (Oct 17, 6:53 am)18% (Oct 15, 12:53 pm)29.77 "Hg (Oct 8, 4:53 pm)
Average58 °F77%29.95 "Hg
* Reported Oct 6 8:53 am — Oct 21 8:53 am, Santa Cruz. Weather by CustomWeather, © 2018

Note: Actual official high and low records may vary slightly from our data, if they occured in-between our weather recording intervals... More about our weather records

Advertising

Santa Cruz Weather History for the Previous 24 Hours

Scroll right to see more
 ConditionsComfort  
Time TempWeatherWind HumidityBarometerVisibility
8:53 am
Sun, Oct 21
49 °FFog.No wind100%29.98 "Hg0 mi
8:19 am49 °FFog.No wind100%29.98 "Hg0 mi
8:11 am49 °FFog.No wind100%29.98 "Hg1 mi
7:53 am49 °FFog.No wind100%29.97 "Hg0 mi
7:30 am49 °FFog.No wind100%29.97 "Hg1 mi
7:08 am48 °FFog.No wind100%29.97 "Hg1 mi
6:53 am49 °FFog.No wind100%29.96 "Hg0 mi
5:53 am50 °FFog.No wind100%29.96 "Hg0 mi
4:53 am51 °FFog.No wind100%29.96 "Hg0 mi
4:03 am51 °FFog.No wind100%29.97 "Hg0 mi
3:53 am51 °FFog.3 mph100%29.96 "Hg1 mi
3:23 am52 °FFog.No wind100%29.97 "Hg1 mi
2:53 am53 °FFog.No wind100%29.97 "Hg0 mi
1:53 am53 °FFog.No wind100%29.97 "Hg0 mi
1:09 am54 °FFog.No wind100%29.98 "Hg0 mi
12:53 am54 °FFog.No wind100%29.98 "Hg1 mi
11:53 pm
Sat, Oct 20
54 °FFog.No wind100%29.98 "Hg1 mi
11:12 pm55 °FFog.No wind100%29.98 "Hg2 mi
11:01 pm55 °FFog.No wind100%29.99 "Hg2 mi
9:53 pm55 °FFog.3 mph100%29.98 "Hg5 mi
9:18 pm56 °FPassing clouds.6 mph97%29.97 "Hg7 mi
9:01 pm55 °FPassing clouds.3 mph96%29.97 "Hg7 mi
7:53 pm56 °FClear.3 mph97%29.96 "Hg8 mi
6:53 pm58 °FClear.5 mph93%29.95 "Hg10 mi
5:53 pm63 °FSunny.6 mph73%29.93 "Hg10 mi
4:53 pm71 °FSunny.6 mph42%29.93 "Hg10 mi
3:53 pm73 °FSunny.10 mph44%29.94 "Hg10 mi
2:53 pm75 °FSunny.7 mph40%29.94 "Hg10 mi
1:53 pm78 °FSunny.9 mph35%29.96 "Hg10 mi
12:53 pm77 °FSunny.6 mph37%29.98 "Hg10 mi
11:53 am73 °FSunny.3 mph41%30.00 "Hg10 mi
10:53 am68 °FSunny.3 mph55%30.02 "Hg10 mi
Weather by CustomWeather, © 2018

See weather overview